KDVP

Details ICAO KDVP
Name SLAYTON MUNI
Region United States
Timezone America/Chicago (UTC-5.0)
Plans Departing 0
Arriving 0
Stats Elevation 1,623 ft / 495 m (AMSL)
Location 43.986477° -95.782222°
Runways 1
Magnetic Variation 2.266° E
Sunrise 2018-05-26 10:48:31 UTC / 2018-05-26 05:48:31 Local
Sunset 2018-05-27 01:54:46 UTC / 2018-05-26 20:54:46 Local
Advertisement - Login to hide

Runways

ID Width Length Bearing (true) Bearing (mag) Surface Threshold Offset Overrun Length
17 60 ft / 18 m 2,776 ft / 846 m 183.01° 180.74° Asphalt 0 ft / 0 m 0 ft / 0 m
35 60 ft / 18 m 2,776 ft / 846 m 3.01° 0.74° Asphalt 0 ft / 0 m 0 ft / 0 m

Map

Weather


0- 5 10 15 20 25 30 35+ Temperature / ° C

Clouds and Precipitation
Forecast for 2018-05-26 18:00 UTC. Updated 2 hours ago

Ground ~20,000 ft ~40,000 ft Winds

METAR

KDVP 261859Z AUTO 28014G20KT 7SM CLR 33/03 A2979 RMK AO2

TAF

Not found

Frequencies

Recorded 118.55 MHz AWOS 3
Approach 132.05 MHz MINNEAPOLIS APP/DEP
Unicom 122.90 MHz CTAF
Warning: Do not use this data for real-world aviation or navigation. No guarantee of current accuracy is given.